Regional Weather Roundup
Issued by NWS

Home | Current Version | Previous Version | Text Only | Print | Product List | Glossary Off
Versions: 1 2 3 4 5 6 7 8 9 10 11 12 13 14 15 16 17 18 19 20 21 22 23 24 25 26 27 28 29 30 31 32 33 34 35 36 37 38 39 40 41 42 43 44 45 46 47 48 49 50

000
ASUS43 KMKX 301711
RWRWI

WISCONSIN REGIONAL WEATHER ROUNDUP
NATIONAL WEATHER SERVICE MILWAUKEE/SULLIVAN WI
1200 PM CDT TUE SEP 30 2014

NOTE: "FAIR" INDICATES FEW OR NO CLOUDS BELOW 12,000 FEET WITH NO
SIGNIFICANT WEATHER AND/OR OBSTRUCTIONS TO VISIBILITY.

WIZ001-002-006>008-014>016-023>028-301800-
NORTHWEST WISCONSIN

CITY           SKY/WX    TMP DP  RH WIND       PRES   REMARKS
SUPERIOR ARPT  CLOUDY    48  42  80 E8        30.10F
ASHLAND        CLOUDY    46  39  76 NE8       30.13F
HAYWARD        CLOUDY    46  39  76 VRB6      30.09F
SIREN          CLOUDY    45  39  78 SE6       30.08S
CUMBERLAND     CLOUDY    43  37  81 SE6       30.08S
RICE LAKE      CLOUDY    45  38  78 NE7       30.09F
CHETEK         CLOUDY    45  40  83 E6        30.09F
LADYSMITH      PTSUNNY   49  42  74 E7        30.10F
EAU CLAIRE     CLOUDY    48  39  71 SE12      30.08F
MENOMONIE      CLOUDY    47  39  75 E10       30.07F
NEW RICHMOND   PTSUNNY   49  39  70 SE8       30.06S
OSCEOLA        CLOUDY    48  41  78 E10       30.08S
$$

WIZ003>005-009-010-017-018-301800-
NORTH CENTRAL WISCONSIN

CITY           SKY/WX    TMP DP  RH WIND       PRES   REMARKS
MANITOWISH WTR CLOUDY    43  39  87 E7        30.10F
ARBOR VITAE    CLOUDY    44  39  83 E5        30.09F
WOODRUFF       CLOUDY    44  39  83 E5        30.09F
RHINELANDER    CLOUDY    43  38  82 VRB6      30.10F
EAGLE RIVER    CLOUDY    44  40  85 N3        30.09F
LAND O LAKES   CLOUDY    44  40  87 NE7       30.10F
PHILLIPS       MOSUNNY   47  39  73 NE6       30.08F
TOMAHAWK       CLOUDY    45  38  77 CALM      30.10F
MEDFORD        CLOUDY    47  40  77 CALM      30.08S
MERRILL        MOSUNNY   48  40  73 NE6       30.09F
$$

WIZ029-030-035-036-043>047-301800-
CENTRAL WISCONSIN

CITY           SKY/WX    TMP DP  RH WIND       PRES   REMARKS
WAUSAU         CLOUDY    47  40  76 NE5       30.08F
MOSINEE        NOT AVBL
MARSHFIELD     CLOUDY    46  39  76 E7        30.09F
STEVENS POINT  CLOUDY    43  38  82 CALM      30.11R
WAUPACA        CLOUDY    47  40  78 CALM      30.11S
WAUTOMA        NOT AVBL
WISC RAPIDS    CLOUDY    47  39  74 VRB3      30.11S
CAMP DOUGLAS   CLOUDY    45  45 100 SE7       30.09F
$$

WIZ011>013-019>022-031-037>040-048>050-301800-
NORTHEAST WISCONSIN

CITY           SKY/WX    TMP DP  RH WIND       PRES   REMARKS
ANTIGO         CLOUDY    44  39  83 CALM      30.10S
SHAWANO        CLOUDY    47  40  78 NE6       30.11S
OCONTO         CLOUDY    46  41  80 NE6       30.10F
STURGEON BAY   NOT AVBL
GREEN BAY      CLOUDY    48  41  76 N8        30.10S
MANITOWOC      NOT AVBL
APPLETON       CLOUDY    45  39  81 N8        30.10F
CLINTONVILLE   CLOUDY    45  37  76 CALM      30.10F
OSHKOSH        CLOUDY    47  41  80 VRB6      30.10R
$$

WIZ032>034-041-042-053>061-301800-
SOUTHWEST WISCONSIN

CITY           SKY/WX    TMP DP  RH WIND       PRES   REMARKS
LA CROSSE      CLOUDY    50  42  74 E5        30.08F
SPARTA         CLOUDY    46  39  79 E7        30.10S
VIROQUA        CLOUDY    50  41  72 E3        30.06F
BOSCOBEL       CLOUDY    51  43  74 NE8       30.08F
PRAIRIE DU CHI CLOUDY    51  43  73 E8        30.06S
PLATTEVILLE    PTSUNNY   50  44  78 NE10G16   30.07F
$$

WIZ056-057-062-063-064-067-068-301800-
SOUTH CENTRAL WISCONSIN

CITY           SKY/WX    TMP DP  RH WIND       PRES   REMARKS
REEDSBURG      CLOUDY    44  40  83 E3        30.09S
BARABOO/DELLS  CLOUDY    44  39  82 NE6       30.09F
LONE ROCK      CLOUDY    52  40  63 E7        30.09F
MINERAL POINT  CLOUDY    48  43  81 E7        30.07S
MADISON        CLOUDY    47  41  80 NE9       30.09S
MIDDLETON      CLOUDY    47  42  80 E7        30.09F
WATERTOWN      CLOUDY    45  42  87 N3        30.10R
MONROE         CLOUDY    45  41  87 E8        30.07F
JANESVILLE     CLOUDY    48  41  76 E9        30.08F
$$

WIZ051-052-058>065-066-070>072-301800-
SOUTHEAST WISCONSIN

CITY           SKY/WX    TMP DP  RH WIND       PRES   REMARKS
MILWAUKEE      CLOUDY    52  43  71 N12       30.08R
WAUKESHA       CLOUDY    46  39  76 N6        30.10R
MILWAUKEE/TIMM CLOUDY    50  39  66 N5        30.09R
RACINE         CLOUDY    52  45  77 N15       30.09R
BURLINGTON     CLOUDY    48  40  74 NE3       30.09R
KENOSHA        CLOUDY    54  45  71 N10G16    30.07S
FOND DU LAC    CLOUDY    47  40  76 NE7       30.10S
SHEBOYGAN      CLOUDY    50  42  74 N8        30.08F
WEST BEND      CLOUDY    46  37  71 CALM      30.09R
JUNEAU         CLOUDY    45  40  83 NE6       30.11R
$$

LSZ147-162-301800-
LAKE SUPERIOR

STATION/POSITION TIME  TEMP    WIND        PRES    WAVE
                       AIR SEA DIR/SP/G            HT/PER
                 (UTC) (F)     (DEG/KT/KT) (MB)    (FT/S)
W MID LAKE BUOY  1650   45 50   80/ 10/ 14 1021.1F   2/ 5
DEVILS ISLAND    1700   45     100/ 13/ 15 1021.2F
SAXON HARBOR     1640   46      30/  9/ 11 1020.0F
$$

LMZ867-665-643>646-301800-
LAKE MICHIGAN

STATION/POSITION TIME  TEMP    WIND        PRES    WAVE
                       AIR SEA DIR/SP/G            HT/PER
                 (UTC) (F)     (DEG/KT/KT) (MB)    (FT/S)
CHAMBERS ISLAND  1600   47     330/ 11/ 15 1019.6S
S GREEN BAY BUOY 1700   47                 1019.9F
N MID LAKE BUOY  1650   48 58   20/ 12/ 16 1019.0R   2/ 4
NORTHPORT PIER   1600   47     360/ 12/ 17 1019.3S
KEWAUNEE LAKESHO 1600   46     360/  8/ 12 1018.1S
SHEBOYGAN LAKESH 1700   47 54   10/ 16/ 17 1019.3F
PORT WASHINGTON  1640   53      50/  9/ 12 1019.0F
ATWATER BUOY     1700   51      10/ 14/ 17 1019.4R
MILWAUKEE LAKESH 1600          360/ 12/ 16   N/A
S MID LAKE BUOY  1650   53 62   20/ 16/ 17 1017.2R   5/ 7
KENOSHA   LAKESH 1700   51      10/  9/ 15 1018.3R
$$

TC  - TEMPERATURE IN CELSIUS
VSB - VISIBILITY IN STATUTE MILES
WCI - WIND CHILL INDEX
HX  - HEAT INDEX




USA.gov is the U.S. government's official web portal to all federal, state and local government web resources and services.